Flag for Turkmenistan Weather past 2 weeks in Ashgabat, Turkmenistan

Now
66 °F

Mostly cloudy.


Feels Like: 66 °F
Forecast: 58 / 70 °F
Wind: 10 mph from East

Location: Ashgabat

Current Time: Oct 21, 2014 at 7:23:32 PM

Latest Report: Oct 21, 2014 at 7:00 PM


Visibility: N/A

Pressure: 29.86 "Hg

Humidity: 49%

Dew point: 46 °F

Location of AshgabatLocation

Historic Weather in Ashgabat — Graph

°F

Ashgabat temperature yesterday

Maximum temperature yesterday: 66 °F (at 12:00 AM)
Minimum temperature yesterday: 50 °F (at 10:30 PM)
Average temperature yesterday: 56 °F

Past Weeks' High & Low Weather Summary

 TemperatureHumidityPressure
High86 °F (Oct 17, 2:00 PM)94% (Oct 7, 10:30 PM)30.48 "Hg (Oct 7, 10:30 PM)
Low43 °F (Oct 10, 6:30 AM)15% (Oct 15, 3:00 PM)29.65 "Hg (Oct 18, 1:00 AM)
Average62 °F50%30.12 "Hg
* Reported Oct 6 6:00 PM — Oct 21 6:00 PM, Ashgabat, Weather by CustomWeather, © 2014

Note: Actual official high and low records may vary slightly from our data, if they occured in-between our weather recording intervals... More about our weather records

Advertising

Ashgabat weather history for previous 24 hours

 ConditionsComfort  
Time TempWeatherWind HumidityBarometerVisibility
6:00 PM
Oct 21
66 °FMore clouds than sun.10 mph52%29.86 "HgN/A
5:00 PM68 °FMore clouds than sun.15 mph46%29.86 "HgN/A
4:00 PM68 °FMore clouds than sun.15 mph46%29.89 "HgN/A
3:00 PM66 °FCloudy.15 mph46%29.92 "HgN/A
2:00 PM64 °FCloudy.13 mph49%29.98 "HgN/A
1:00 PM64 °FBroken clouds.13 mph49%30.01 "HgN/A
12:00 PM61 °FPartly sunny.15 mph55%30.07 "HgN/A
11:00 AM57 °FPartly sunny.13 mph59%30.12 "HgN/A
10:00 AM54 °FMore clouds than sun.15 mph58%30.15 "HgN/A
9:00 AM50 °FBroken clouds.6 mph62%30.18 "HgN/A
8:00 AM48 °FPassing clouds.6 mph66%30.18 "HgN/A
7:00 AM48 °FPassing clouds.8 mph62%30.21 "HgN/A
6:00 AM48 °FPassing clouds.8 mph62%30.21 "HgN/A
5:00 AM50 °FMostly cloudy.8 mph54%30.24 "HgN/A
4:00 AM50 °FOvercast.8 mph54%30.24 "HgN/A
3:00 AM50 °FOvercast.6 mph50%30.27 "HgN/A
2:00 AM50 °FOvercast.3 mph50%30.30 "HgN/A
1:00 AM50 °FOvercast.1 mph50%30.30 "HgN/A
12:00 AM50 °FOvercast.6 mph62%30.33 "HgN/A
11:00 PM
Oct 20
50 °FOvercast.6 mph62%30.30 "HgN/A
10:30 PM50 °FOvercast.6 mph67%30.30 "HgN/A
10:00 PM52 °FOvercast.6 mph62%30.30 "HgN/A
9:30 PM52 °FOvercast.6 mph62%30.30 "HgN/A
9:00 PM52 °FOvercast.8 mph62%30.30 "HgN/A
8:30 PM52 °FOvercast.8 mph67%30.30 "HgN/A
8:00 PM52 °FOvercast.10 mph67%30.30 "HgN/A
7:30 PM52 °FOvercast.8 mph67%30.27 "HgN/A
7:00 PM52 °FOvercast.10 mph67%30.27 "HgN/A
Weather by CustomWeather, © 2014

See weather overviewHow to use our weather pages